Flag for Germany Weather past 2 weeks in Hagen, North Rhine-Westphalia, Germany

Now
52 °F

Clear.


Feels Like: 52 °F
Forecast: 49 / 65 °F
Wind: 2 mph from Southwest

Location: Duesseldorf

Current Time: Sep 2, 2015 at 5:25:41 AM

Latest Report: Sep 2, 2015 at 4:00 AM


Visibility: 19 mi

Pressure: 30.06 "Hg

Humidity: 95%

Dew point: 51 °F

Location of HagenLocation

Historic Weather in Hagen — Graph

°F

Hagen temperature yesterday

Maximum temperature yesterday: 69 °F (at 1:00 AM)
Minimum temperature yesterday: 58 °F (at 11:00 PM)
Average temperature yesterday: 63 °F

Past Weeks' High & Low Weather Summary

 TemperatureHumidityPressure
High89 °F (Aug 30, 4:00 PM)98% (Aug 19, 5:00 AM)30.26 "Hg (Aug 19, 5:00 AM)
Low49 °F (Aug 19, 5:00 AM)33% (Aug 23, 2:00 PM)29.53 "Hg (Aug 24, 6:00 PM)
Average67 °F71%29.98 "Hg
* Reported Aug 18 4:00 AM — Sep 2 4:00 AM, Hagen, Weather by CustomWeather, © 2015

Note: Actual official high and low records may vary slightly from our data, if they occured in-between our weather recording intervals... More about our weather records

Advertising

Hagen weather history for previous 24 hours

 ConditionsComfort  
Time TempWeatherWind HumidityBarometerVisibility
4:00 AM
Wed, Sep 2
52 °FClear.2 mph95%30.06 "Hg19 mi
3:00 AM53 °FClear.3 mph94%30.07 "Hg19 mi
2:00 AM53 °FClear.3 mph92%30.06 "Hg25 mi
1:00 AM54 °FClear.1 mph90%30.06 "Hg19 mi
11:00 PM
Tue, Sep 1
58 °FPassing clouds.3 mph77%30.05 "Hg19 mi
10:00 PM59 °FPassing clouds.3 mph77%30.04 "Hg19 mi
9:00 PM61 °FPassing clouds.2 mph75%30.02 "Hg19 mi
8:00 PM62 °FScattered clouds.3 mph73%29.99 "Hg25 mi
7:00 PM64 °FPartly sunny.3 mph71%29.98 "Hg19 mi
6:00 PM63 °FPartly sunny.5 mph76%29.97 "Hg19 mi
5:00 PM64 °FOvercast.5 mph76%29.96 "Hg16 mi
4:00 PM63 °FOvercast.5 mph82%29.94 "Hg14 mi
3:00 PM60 °FLight rain. Overcast.6 mph90%29.93 "Hg11 mi
2:00 PM61 °FLight rain. Low clouds.6 mph93%29.90 "Hg7 mi
1:00 PM61 °FLight rain. Low clouds.5 mph94%29.90 "Hg6 mi
12:00 PM60 °FRain. Low clouds.3 mph95%29.87 "Hg6 mi
10:00 AM61 °FLight rain. Low clouds.5 mph95%29.84 "Hg12 mi
9:00 AM62 °FLight rain. Low clouds.5 mph93%29.84 "Hg7 mi
8:00 AM62 °FLight rain. Low clouds.3 mph94%29.85 "Hg3 mi
7:00 AM64 °FOvercast.3 mph84%29.83 "Hg12 mi
Weather by CustomWeather, © 2015

See weather overviewHow to use our weather pages